Weather History for KAFN - January, 2013

Change the Weather History Date:

Sunday, January 6, 2013

  Actual Average Record
Temperature  
Mean Temperature 25 °F -  
Max Temperature 35 °F 29 °F 63 °F (2007)
Min Temperature 15 °F 14 °F -5 °F (1999)
Degree Days  
Heating Degree Days 40    
Moisture  
Dew Point 21 °F    
Average Humidity 85    
Maximum Humidity 96    
Minimum Humidity 64    
Precipitation  
Precipitation 0.00 in - - ()
Sea Level Pressure  
Sea Level Pressure 30.02 in    
Wind  
Wind Speed 2 mph (SW)    
Max Wind Speed 8 mph    
Max Gust Speed -    
Visibility 8 miles    
Events Snow    
Averages and records for this station are not official NWS values.
T = Trace of Precipitation, MM = Missing Value Source: NWS Daily Summary

Daily Weather History Graph

Daily Weather History Graph

Search for Another Location

Airport or City:

Trip Planner

Search our weather history database for the weather conditions in past years. The results will help you decide how hot, cold, wet, or windy it might be!

Date:

Astronomy

Jan. 06, 2013 Rise Set
Actual Time 7:18 AM EST 4:29 PM EST
Civil Twilight 6:46 AM EST 5:01 PM EST
Nautical Twilight 6:11 AM EST 5:36 PM EST
Astronomical Twilight 5:37 AM EST 6:11 PM EST
Moon 1:26 AM EST (1/6) 11:57 AM EST (1/6)
Length of Visible Light 10h 14m
Length of Day
9h 11m
Waning Crescent, 33% of the Moon is Illuminated
Jan 6
Waning Crescent
Jan 11
New
Jan 18
First Quarter
Jan 26
Full
Feb 3
Last Quarter

Hourly Weather History & Observations

Time (EST) Temp. Windchill Dew Point Humidity Pressure Visibility Wind Dir Wind Speed Gust Speed Precip Events Conditions
12:52 AM 15.1 °F - 12.0 °F 88% 30.20 in 10.0 mi Calm Calm - N/A   Clear
1:52 AM 17.1 °F - 12.9 °F 84% 30.21 in 10.0 mi Calm Calm - N/A   Clear
2:52 AM 19.9 °F - 15.1 °F 81% 30.18 in 10.0 mi Calm Calm - N/A   Overcast
3:52 AM 19.9 °F - 16.0 °F 85% 30.14 in 10.0 mi Calm Calm - N/A   Overcast
4:37 AM 21.2 °F - 17.6 °F 86% 30.05 in 2.5 mi Calm Calm - 0.00 in Snow Light Snow
4:48 AM 21.2 °F - 17.6 °F 86% 30.04 in 4.0 mi Calm Calm - 0.00 in Snow Light Snow
4:52 AM 21.0 °F - 18.0 °F 88% 30.11 in 4.0 mi Calm Calm - 0.00 in Snow Light Snow
5:11 AM 21.2 °F - 17.6 °F 86% 30.04 in 4.0 mi Calm Calm - 0.00 in Snow Light Snow
5:23 AM 21.2 °F - 19.4 °F 93% 30.04 in 2.5 mi Calm Calm - 0.00 in Snow Light Snow
5:30 AM 21.2 °F - 19.4 °F 93% 30.04 in 2.5 mi Calm Calm - 0.00 in Snow Light Snow
5:40 AM 21.2 °F - 19.4 °F 93% 30.04 in 2.5 mi Calm Calm - 0.00 in Snow Light Snow
5:52 AM 21.9 °F - 19.9 °F 92% 30.09 in 2.5 mi Calm Calm - 0.00 in Snow Light Snow
6:02 AM 21.2 °F - 19.4 °F 93% 30.02 in 3.0 mi Calm Calm - 0.00 in Snow Light Snow
6:11 AM 21.2 °F - 19.4 °F 93% 30.02 in 3.0 mi Calm Calm - 0.00 in Snow Light Snow
6:52 AM 23.0 °F - 21.0 °F 92% 30.08 in 6.0 mi Calm Calm - 0.00 in Snow Light Snow
7:01 AM 23.0 °F 18.4 °F 21.2 °F 93% 30.01 in 7.0 mi South 3.5 mph - 0.00 in Snow Light Snow
7:52 AM 25.0 °F 19.3 °F 23.0 °F 92% 30.06 in 10.0 mi South 4.6 mph - 0.00 in   Overcast
8:52 AM 25.0 °F 16.3 °F 24.1 °F 96% 30.05 in 10.0 mi SSW 8.1 mph - N/A   Overcast
9:52 AM 26.1 °F 19.4 °F 24.1 °F 92% 30.05 in 10.0 mi SW 5.8 mph - N/A   Overcast
10:22 AM 28.4 °F 21.2 °F 24.8 °F 86% 29.98 in 10.0 mi SW 6.9 mph - N/A   Scattered Clouds
10:52 AM 28.9 °F 21.1 °F 24.1 °F 82% 30.03 in 10.0 mi SSW 8.1 mph - N/A   Partly Cloudy
11:32 AM 30.2 °F 23.4 °F 24.8 °F 80% 29.94 in 10.0 mi Variable 6.9 mph - N/A   Mostly Cloudy
11:52 AM 32.0 °F 24.8 °F 24.1 °F 73% 30.00 in 10.0 mi SSW 8.1 mph - N/A   Overcast
12:52 PM 35.1 °F 29.3 °F 24.1 °F 64% 29.97 in 10.0 mi WSW 6.9 mph - N/A   Mostly Cloudy
1:52 PM 34.0 °F 27.2 °F 24.1 °F 67% 29.97 in 10.0 mi West 8.1 mph - N/A   Overcast
2:35 PM 33.8 °F 27.7 °F 24.8 °F 70% 29.90 in 10.0 mi WSW 6.9 mph - N/A   Scattered Clouds
2:52 PM 34.0 °F 28.0 °F 24.1 °F 67% 29.96 in 10.0 mi SW 6.9 mph - N/A   Clear
3:22 PM 33.8 °F 29.6 °F 24.8 °F 70% 29.90 in 10.0 mi West 4.6 mph - N/A   Overcast
3:52 PM 34.0 °F 31.0 °F 24.1 °F 67% 29.95 in 10.0 mi Variable 3.5 mph - N/A   Scattered Clouds
4:52 PM 30.9 °F 27.5 °F 25.0 °F 79% 29.96 in 10.0 mi SSW 3.5 mph - N/A   Overcast
5:52 PM 30.0 °F 26.5 °F 25.0 °F 82% 29.96 in 10.0 mi South 3.5 mph - N/A   Overcast
6:52 PM 28.9 °F - 25.0 °F 85% 29.97 in 10.0 mi Calm Calm - N/A   Overcast
7:52 PM 25.0 °F - 21.9 °F 88% 29.99 in 10.0 mi Calm Calm - N/A   Overcast
8:52 PM 27.0 °F - 24.1 °F 89% 29.98 in 10.0 mi Calm Calm - N/A   Overcast
9:52 PM 23.0 °F 18.4 °F 21.0 °F 92% 29.97 in 9.0 mi South 3.5 mph - N/A   Mostly Cloudy
10:52 PM 24.1 °F 18.2 °F 21.9 °F 91% 29.98 in 9.0 mi SSW 4.6 mph - N/A   Mostly Cloudy
11:52 PM 24.1 °F - 21.9 °F 91% 29.98 in 9.0 mi Calm Calm - N/A   Scattered Clouds